Volver al catálogo

CZ-6A DEB

ActivoSSO
NORAD 55213·DEBRIS·🇨🇳 China

Lanzado Nov 11, 2022 desde Taiyuan Satellite Launch Center

Loading…

Próximos Pases (próximas 24 horas)

TLE

ActualizadoSource: Space-Track

Época: Sep 14, 2026, 14:57 UTC

1 55213U 22151WE  26257.62330572  .00004161  00000-0  87850-3 0  9990
2 55213  98.6150 314.6578 0088808  43.1542 317.6571 14.57488421197159

Sigue CZ-6A DEB en tiempo real con AllMySat

Download on the App Store